Inquirer Daily News

Weather

Get conditions and forecasts for any City, State, ZIP code or Country:  
Trenton, NJ
on Sunday, December 9, 2012

Sunday
Previous Day Next Day
Daily Summary
 ActualAverageRecord
Temperature
Mean Temperature °F 37°F  
Max Temperature 49°F 45°F 69°F (1966)
Min Temperature 41°F 30°F 12°F (2002)
Degree Days
Heating Degree Days 20 28  
Month to date heating degree days 182 236  
Since 1 July heating degree days 1189 1212  
Cooling Degree Days 0 0  
Month to date cooling degree days 0 0  
Year to date cooling degree days 1234 965  
Moisture
Dew Point 42°F   
Average Humidity 93    
Maximum Humidity 100    
Minimum Humidity 86    
Precipitation
Precipitation 0.30 in 0.13 in 2.25 in (1978)
Month to date precipitation 0.75 1.23  
Year to date precipitation 33.98 43.97  
Wind
Wind Speed 6 mph   
Max Wind Speed 13 mph   
Max Gust Speed 17 mph   
Visibility 5 miles   
Events Fog , Rain   

Key: T is trace of precipitation, MM is missing value
Source: NWS Daily Summary
Time(EST)TemperatureDew PointHumidity Pressure Visibility Wind DirectionWind SpeedGust SpeedPrecipitationEvents Conditions
12:53 AM 48.9°F 48.0°F 97% 30.01 in 0.2 miles Calm Calm - N/A Fog Fog
1:53 AM 48.0°F 48.0°F 100% 30.03 in 0.2 miles Calm Calm - N/A Fog Fog
2:19 AM 48.2°F 46.4°F 93% 30.06 in 1.0 miles WNW 3.5 mph - N/A   Overcast
2:48 AM 48.2°F 46.4°F 93% 30.05 in 0.5 miles Calm Calm - N/A Fog Fog
2:53 AM 48.0°F 46.9°F 96% 30.04 in 0.5 miles Calm Calm - N/A Fog Fog
3:53 AM 46.9°F 46.9°F 100% 30.06 in 0.2 miles Calm Calm - N/A Fog Fog
4:53 AM 45.0°F 44.1°F 97% 30.08 in 0.2 miles Calm Calm - N/A Fog Fog
5:16 AM 44.6°F 42.8°F 93% 30.11 in 1.5 miles NNE 3.5 mph - N/A   Mostly Cloudy
5:23 AM 44.6°F 44.6°F 100% 30.11 in 3.0 miles NNE 4.6 mph - N/A   Mostly Cloudy
5:53 AM 45.0°F 44.1°F 97% 30.12 in 3.0 miles Calm Calm - N/A   Mostly Cloudy
6:53 AM 46.9°F 42.1°F 83% 30.16 in 10.0 miles NNE 10.4 mph - N/A   Partly Cloudy
7:53 AM 46.9°F 39.0°F 74% 30.17 in 10.0 miles NNE 6.9 mph - 0.00 in Rain Light Rain
8:53 AM 46.9°F 37.9°F 71% 30.21 in 10.0 miles NNE 6.9 mph - 0.00 in   Overcast
9:53 AM 46.0°F 39.9°F 79% 30.21 in 10.0 miles ENE 5.8 mph - 0.01 in Rain Light Rain
10:53 AM 45.0°F 41.0°F 86% 30.21 in 7.0 miles NE 5.8 mph - 0.03 in Rain Light Rain
11:20 AM 44.6°F 42.8°F 93% 30.21 in 9.0 miles NE 5.8 mph - 0.02 in Rain Light Rain
11:53 AM 45.0°F 42.1°F 90% 30.19 in 7.0 miles ENE 8.1 mph - 0.03 in Rain Light Rain
12:23 PM 44.6°F 42.8°F 93% 30.18 in 6.0 miles ENE 9.2 mph - 0.01 in Rain Light Rain
12:53 PM 44.1°F 41.0°F 89% 30.16 in 5.0 miles East 10.4 mph - 0.04 in Rain Light Rain
1:07 PM 44.6°F 42.8°F 93% 30.18 in 5.0 miles East 4.6 mph - 0.01 in Rain Light Rain
1:22 PM 44.6°F 42.8°F 93% 30.18 in 5.0 miles East 6.9 mph - 0.01 in Rain Light Rain
1:53 PM 43.0°F 41.0°F 93% 30.17 in 8.0 miles ENE 8.1 mph - 0.01 in   Overcast
2:53 PM 43.0°F 39.0°F 86% 30.16 in 7.0 miles East 9.2 mph - 0.01 in Rain Light Rain
3:53 PM 42.1°F 39.0°F 89% 30.17 in 4.0 miles ENE 8.1 mph - 0.02 in Rain Light Rain
4:53 PM 42.1°F 39.0°F 89% 30.17 in 10.0 miles ENE 5.8 mph - 0.01 in Rain Light Rain
5:53 PM 42.1°F 39.0°F 89% 30.15 in 7.0 miles East 6.9 mph - 0.00 in   Overcast
6:12 PM 41.0°F 39.2°F 93% 30.16 in 2.0 miles East 6.9 mph - 0.00 in Rain Light Rain
6:31 PM 41.0°F 39.2°F 93% 30.16 in 2.5 miles ENE 6.9 mph - 0.00 in   Overcast
6:53 PM 42.1°F 39.9°F 92% 30.14 in 3.0 miles ENE 6.9 mph - 0.01 in   Overcast
7:53 PM 42.1°F 39.9°F 92% 30.11 in 3.0 miles East 9.2 mph - 0.05 in Rain Rain
9:53 PM 44.1°F 43.0°F 96% 30.04 in 3.0 miles East 5.8 mph - 0.00 in   Overcast
10:22 PM 44.6°F 44.6°F 100% 30.04 in 2.0 miles NE 4.6 mph - 0.03 in Rain Light Rain
10:34 PM 44.6°F 42.8°F 93% 30.04 in 4.0 miles North 4.6 mph - 0.04 in Rain Light Rain
10:53 PM 44.1°F 43.0°F 96% 30.02 in 4.0 miles NNE 5.8 mph - 0.06 in Rain Light Rain
11:53 PM 45.0°F 44.1°F 97% 29.98 in 6.0 miles ENE 4.6 mph - 0.00 in Rain Light Rain
Astronomy
Sunrise:07:10 AM (EST) Moon Rise:02:40 AM (EST)12/9
Sunset:04:33 PM (EST) Moon Set:01:38 PM (EST)12/9
Moon Phase
Dec. 09 Dec. 13 Dec. 20 Dec. 28 Jan. 04

Copyright © 2014 The Weather Underground, Inc.